Location: Namasale
(1.5000°N, 32.6167°E)
Time: 07:39:31
(UTC+00:00)

N. Korean satellite - Visible Passes

Search period start: 07 December 2021 00:00
Search period end: 17 December 2021 00:00
Orbit: 446 x 495 km, 97.3° (Epoch: 06 December)

Date Brightness Start Highest point End Pass type
(mag) Time Alt. Az. Time Alt. Az. Time Alt. Az.
07 Dec 9.5 02:03:52 10° ENE 02:06:08 17° ESE 02:08:26 10° SE visible
08 Dec 7.2 03:07:34 10° NNW 03:10:35 30° W 03:13:39 10° SW visible
09 Dec 6.6 02:38:43 10° NNE 02:42:07 76° ESE 02:45:34 10° S visible
10 Dec 9.0 02:10:54 10° NE 02:13:39 22° E 02:16:25 10° SSE visible
11 Dec 7.6 03:15:20 10° NNW 03:18:05 23° W 03:20:52 10° SW visible
12 Dec 6.3 02:46:10 10° N 02:49:34 77° W 02:53:03 10° SSW visible
13 Dec 8.5 02:18:01 10° NE 02:21:05 30° E 02:24:11 10° SSE visible
14 Dec 10.0 01:51:58 10° E 01:52:36 10° ESE 01:53:14 10° ESE visible
15 Dec 6.5 02:53:36 10° N 02:56:58 54° W 03:00:25 10° SSW visible
16 Dec 7.8 02:25:10 10° NNE 02:28:27 41° E 02:31:48 10° S visible
